Simultaneous Nadir Overpasses (SNOs) Predictions

Prediction of SNOs between AQUA and GOES-15 Satellite Orbit:

Table of predicted SNOs for the next 14.0 days since TLE Epoch: 7/20/2024
Index Date Time (AQUA) AQUA Lat,Lon GOES-15 Lat,Lon Distance(km) Time Diff (sec)
1 07/20/2024 22:07:37 -0.41, 61.28 -0.37, 61.19 11.05 80
2 07/22/2024 21:50:47 -1.25, 65.40 -0.37, 61.20 477.28 80
3 07/23/2024 10:11:00 0.26, 60.50 0.39, 61.16 74.25 80
4 07/25/2024 09:54:09 1.13, 64.63 0.38, 61.17 392.82 80
5 07/25/2024 22:14:12 -0.09, 59.77 -0.40, 61.22 164.47 80
6 07/27/2024 21:57:20 -0.97, 63.90 -0.40, 61.24 302.45 80
7 07/28/2024 10:17:32 -0.03, 59.01 0.41, 61.21 249.68 80
8 07/30/2024 10:00:38 0.81, 63.14 0.41, 61.23 217.18 80
9 07/30/2024 22:20:40 0.20, 58.29 -0.43, 61.28 339.44 80
10 08/01/2024 22:03:45 -0.66, 62.43 -0.43, 61.31 127.13 80
11 08/02/2024 10:23:56 -0.36, 57.54 0.44, 61.28 425.66 80
